Location: Aufkirchen
(47.9603°N, 11.3653°E)
Time: 16:39:04
(UTC+01:00)

Transit 4A - Pass Details

Date: 02 December 2020
Orbit: 864 x 980 km, 66.8° (Epoch: 26 January)

Event Time Altitude Azimuth Distance (km) Brightness Sun altitude
Rises 14:45:12 0° 326° (NW) 3,689 10.8 11.2°
Reaches altitude 10° 14:47:59 10° 334° (NNW) 2,732 10.1 10.9°
Maximum altitude 14:53:57 39° 42° (NE) 1,405 8.5 10.3°
Drops below altitude 10° 14:59:46 10° 111° (ESE) 2,667 10.1 9.7°
Sets 15:02:27 0° 119° (ESE) 3,591 10.8 9.4°
